Time,TemperatureF,DewpointF,PressureIn,WindDirection,WindDirectionDegrees,WindSpeedMPH,WindSpeedGustMPH,Humidity,HourlyPrecipIn,Conditions,Clouds,dailyrainin,SoftwareType,DateUTC
2013-03-09 00:02:00,32.0,26.0,-100.00,ENE,65,1.0,4.0,77,0.00,,,-99.99,,2013-03-09 05:02:00,
2013-03-09 00:12:00,32.0,26.0,-100.00,NE,50,3.0,4.0,78,0.00,,,-99.99,,2013-03-09 05:12:00,
2013-03-09 00:22:00,31.0,26.0,-100.00,ENE,60,2.0,5.0,79,0.00,,,-99.99,,2013-03-09 05:22:00,
2013-03-09 00:32:00,31.0,26.0,-100.00,NE,50,2.0,5.0,79,0.00,,,-99.99,,2013-03-09 05:32:00,
2013-03-09 00:42:00,31.0,26.0,-100.00,ENE,65,2.0,3.0,79,0.00,,,-99.99,,2013-03-09 05:42:00,
2013-03-09 00:52:00,31.0,26.0,-100.00,ENE,65,2.0,4.0,82,0.00,,,-99.99,,2013-03-09 05:52:00,
2013-03-09 01:02:00,31.0,26.0,-100.00,ENE,65,2.0,6.0,81,0.00,,,-99.99,,2013-03-09 06:02:00,
2013-03-09 01:11:00,31.0,26.0,-100.00,NE,35,1.0,3.0,80,0.00,,,-99.99,,2013-03-09 06:11:00,
2013-03-09 01:22:00,31.0,26.0,-100.00,NE,35,2.0,3.0,80,0.00,,,-99.99,,2013-03-09 06:22:00,
2013-03-09 01:32:00,31.0,26.0,-100.00,NNE,15,2.0,3.0,80,0.00,,,-99.99,,2013-03-09 06:32:00,
2013-03-09 01:42:00,30.0,25.0,-100.00,NNE,15,2.0,3.0,82,0.00,,,-99.99,,2013-03-09 06:42:00,
2013-03-09 01:51:00,30.0,25.0,-100.00,NE,55,2.0,2.0,82,0.00,,,-99.99,,2013-03-09 06:51:00,
2013-03-09 02:01:00,30.0,25.0,-100.00,NE,45,2.0,4.0,83,0.00,,,-99.99,,2013-03-09 07:01:00,
2013-03-09 02:11:00,30.0,25.0,-100.00,North,5,1.0,3.0,83,0.00,,,-99.99,,2013-03-09 07:11:00,
2013-03-09 02:21:00,29.0,25.0,-100.00,NW,325,1.0,2.0,83,0.00,,,-99.99,,2013-03-09 07:21:00,
2013-03-09 02:32:00,29.0,25.0,-100.00,NW,325,0.0,2.0,84,0.00,,,-99.99,,2013-03-09 07:32:00,
2013-03-09 02:42:00,29.0,25.0,-100.00,NW,325,1.0,2.0,85,0.00,,,-99.99,,2013-03-09 07:42:00,
2013-03-09 02:52:00,28.0,25.0,-100.00,NW,325,1.0,2.0,85,0.00,,,-99.99,,2013-03-09 07:52:00,
2013-03-09 03:01:00,28.0,25.0,-100.00,NW,320,1.0,1.0,85,0.00,,,-99.99,,2013-03-09 08:01:00,
2013-03-09 03:11:00,28.0,24.0,-100.00,NNW,340,0.0,1.0,86,0.00,,,-99.99,,2013-03-09 08:11:00,
2013-03-09 03:22:00,28.0,25.0,-100.00,NNE,30,1.0,1.0,86,0.00,,,-99.99,,2013-03-09 08:22:00,
2013-03-09 03:32:00,28.0,25.0,-100.00,NNE,25,1.0,2.0,87,0.00,,,-99.99,,2013-03-09 08:32:00,
2013-03-09 03:42:00,28.0,25.0,-100.00,NE,50,0.0,1.0,87,0.00,,,-99.99,,2013-03-09 08:42:00,
2013-03-09 03:52:00,28.0,25.0,-100.00,NE,40,0.0,1.0,87,0.00,,,-99.99,,2013-03-09 08:52:00,
2013-03-09 04:02:00,28.0,25.0,-100.00,NE,40,0.0,1.0,87,0.00,,,-99.99,,2013-03-09 09:02:00,
2013-03-09 04:12:00,27.0,24.0,-100.00,ENE,65,1.0,1.0,87,0.00,,,-99.99,,2013-03-09 09:12:00,
2013-03-09 04:21:00,27.0,24.0,-100.00,NE,55,2.0,3.0,89,0.00,,,-99.99,,2013-03-09 09:21:00,
2013-03-09 04:32:00,27.0,25.0,-100.00,NE,50,3.0,4.0,90,0.00,,,-99.99,,2013-03-09 09:32:00,
2013-03-09 04:42:00,27.0,24.0,-100.00,NE,40,1.0,4.0,90,0.00,,,-99.99,,2013-03-09 09:42:00,
2013-03-09 04:52:00,27.0,24.0,-100.00,NE,50,2.0,3.0,89,0.00,,,-99.99,,2013-03-09 09:52:00,
2013-03-09 05:01:00,27.0,24.0,-100.00,NE,35,1.0,2.0,89,0.00,,,-99.99,,2013-03-09 10:01:00,
2013-03-09 05:11:00,27.0,24.0,-100.00,NE,40,2.0,3.0,89,0.00,,,-99.99,,2013-03-09 10:11:00,
2013-03-09 05:21:00,27.0,24.0,-100.00,NE,50,2.0,3.0,90,0.00,,,-99.99,,2013-03-09 10:21:00,
2013-03-09 05:32:00,27.0,24.0,-100.00,North,355,1.0,4.0,90,0.00,,,-99.99,,2013-03-09 10:32:00,
2013-03-09 05:42:00,26.0,24.0,-100.00,NE,40,2.0,3.0,89,0.00,,,-99.99,,2013-03-09 10:42:00,
2013-03-09 05:52:00,26.0,24.0,-100.00,NE,45,2.0,4.0,90,0.00,,,-99.99,,2013-03-09 10:52:00,
2013-03-09 06:01:00,27.0,24.0,-100.00,NE,35,1.0,2.0,90,0.00,,,-99.99,,2013-03-09 11:01:00,
2013-03-09 06:11:00,26.0,24.0,-100.00,NNE,15,2.0,3.0,89,0.00,,,-99.99,,2013-03-09 11:11:00,
2013-03-09 06:21:00,26.0,24.0,-100.00,North,5,0.0,2.0,89,0.00,,,-99.99,,2013-03-09 11:21:00,
2013-03-09 06:32:00,26.0,23.0,-100.00,NNE,15,0.0,1.0,89,0.00,,,-99.99,,2013-03-09 11:32:00,
2013-03-09 06:42:00,26.0,24.0,-100.00,NNE,25,1.0,2.0,89,0.00,,,-99.99,,2013-03-09 11:42:00,
2013-03-09 06:52:00,26.0,23.0,-100.00,NNE,15,0.0,1.0,89,0.00,,,-99.99,,2013-03-09 11:52:00,
2013-03-09 07:02:00,26.0,23.0,-100.00,NNW,330,0.0,1.0,89,0.00,,,-99.99,,2013-03-09 12:02:00,
2013-03-09 07:11:00,26.0,23.0,-100.00,NW,310,0.0,1.0,89,0.00,,,-99.99,,2013-03-09 12:11:00,
2013-03-09 07:21:00,26.0,23.0,-100.00,NNW,330,0.0,1.0,90,0.00,,,-99.99,,2013-03-09 12:21:00,
2013-03-09 07:32:00,27.0,24.0,-100.00,NE,40,0.0,1.0,90,0.00,,,-99.99,,2013-03-09 12:32:00,
2013-03-09 07:42:00,27.0,24.0,-100.00,East,80,1.0,2.0,88,0.00,,,-99.99,,2013-03-09 12:42:00,
2013-03-09 07:52:00,27.0,24.0,-100.00,ENE,60,2.0,3.0,88,0.00,,,-99.99,,2013-03-09 12:52:00,
2013-03-09 08:02:00,28.0,25.0,-100.00,ENE,75,2.0,4.0,88,0.00,,,-99.99,,2013-03-09 13:02:00,
2013-03-09 08:11:00,28.0,25.0,-100.00,NNE,30,1.0,3.0,88,0.00,,,-99.99,,2013-03-09 13:11:00,
2013-03-09 08:21:00,28.0,25.0,-100.00,NNE,30,1.0,3.0,88,0.00,,,-99.99,,2013-03-09 13:21:00,
2013-03-09 08:32:00,30.0,26.0,-100.00,NNE,15,1.0,2.0,85,0.00,,,-99.99,,2013-03-09 13:32:00,
2013-03-09 08:42:00,31.0,26.0,-100.00,ESE,105,0.0,2.0,83,0.00,,,-99.99,,2013-03-09 13:42:00,
2013-03-09 08:52:00,32.0,27.0,-100.00,East,80,2.0,4.0,82,0.00,,,-99.99,,2013-03-09 13:52:00,
2013-03-09 09:01:00,33.0,27.0,-100.00,East,95,5.0,8.0,78,0.00,,,-99.99,,2013-03-09 14:01:00,
2013-03-09 09:11:00,33.0,26.0,-100.00,ESE,120,9.0,12.0,73,0.00,,,-99.99,,2013-03-09 14:11:00,
2013-03-09 09:21:00,33.0,26.0,-100.00,East,100,7.0,11.0,74,0.00,,,-99.99,,2013-03-09 14:21:00,
2013-03-09 09:32:00,34.0,26.0,-100.00,ESE,105,9.0,11.0,73,0.00,,,-99.99,,2013-03-09 14:32:00,
2013-03-09 09:42:00,35.0,27.0,-100.00,East,100,6.0,9.0,72,0.00,,,-99.99,,2013-03-09 14:42:00,
2013-03-09 09:52:00,35.0,27.0,-100.00,East,100,6.0,9.0,72,0.00,,,-99.99,,2013-03-09 14:52:00,
2013-03-09 10:02:00,36.0,27.0,-100.00,ESE,105,6.0,10.0,69,0.00,,,-99.99,,2013-03-09 15:02:00,
2013-03-09 10:12:00,36.0,27.0,-100.00,SE,125,4.0,10.0,68,0.00,,,-99.99,,2013-03-09 15:12:00,
2013-03-09 10:22:00,37.0,28.0,-100.00,ESE,105,5.0,9.0,68,0.00,,,-99.99,,2013-03-09 15:22:00,
2013-03-09 10:32:00,38.0,28.0,-100.00,ESE,110,6.0,9.0,68,0.00,,,-99.99,,2013-03-09 15:32:00,
2013-03-09 10:42:00,39.0,29.0,-100.00,East,85,6.0,11.0,67,0.00,,,-99.99,,2013-03-09 15:42:00,
2013-03-09 10:52:00,38.0,28.0,-100.00,East,80,6.0,11.0,65,0.00,,,-99.99,,2013-03-09 15:52:00,
2013-03-09 11:01:00,40.0,29.0,-100.00,East,90,8.0,12.0,65,0.00,,,-99.99,,2013-03-09 16:01:00,
2013-03-09 11:11:00,41.0,29.0,-100.00,East,100,6.0,9.0,64,0.00,,,-99.99,,2013-03-09 16:11:00,
2013-03-09 11:21:00,41.0,29.0,-100.00,East,85,4.0,9.0,61,0.00,,,-99.99,,2013-03-09 16:21:00,
2013-03-09 11:32:00,42.0,28.0,-100.00,ESE,110,4.0,7.0,59,0.00,,,-99.99,,2013-03-09 16:32:00,
2013-03-09 11:42:00,42.0,29.0,-100.00,ENE,75,6.0,9.0,59,0.00,,,-99.99,,2013-03-09 16:42:00,
2013-03-09 11:51:00,43.0,29.0,-100.00,ESE,115,7.0,9.0,58,0.00,,,-99.99,,2013-03-09 16:51:00,
2013-03-09 12:01:00,44.0,30.0,-100.00,East,80,7.0,9.0,57,0.00,,,-99.99,,2013-03-09 17:01:00,
2013-03-09 12:11:00,45.0,30.0,-100.00,East,90,8.0,11.0,56,0.00,,,-99.99,,2013-03-09 17:11:00,
2013-03-09 12:22:00,45.0,30.0,-100.00,ESE,120,6.0,11.0,55,0.00,,,-99.99,,2013-03-09 17:22:00,
2013-03-09 12:32:00,45.0,30.0,-100.00,ESE,105,5.0,11.0,54,0.00,,,-99.99,,2013-03-09 17:32:00,
2013-03-09 12:42:00,46.0,29.0,-100.00,ESE,110,6.0,9.0,51,0.00,,,-99.99,,2013-03-09 17:42:00,
2013-03-09 12:52:00,47.0,31.0,-100.00,East,80,7.0,12.0,53,0.00,,,-99.99,,2013-03-09 17:52:00,
2013-03-09 13:02:00,49.0,30.0,-100.00,ESE,110,6.0,9.0,48,0.00,,,-99.99,,2013-03-09 18:02:00,
2013-03-09 13:11:00,48.0,31.0,-100.00,East,95,7.0,11.0,50,0.00,,,-99.99,,2013-03-09 18:11:00,
2013-03-09 13:21:00,49.0,31.0,-100.00,SE,135,5.0,10.0,49,0.00,,,-99.99,,2013-03-09 18:21:00,
2013-03-09 13:32:00,49.0,31.0,-100.00,ESE,110,5.0,11.0,50,0.00,,,-99.99,,2013-03-09 18:32:00,
2013-03-09 13:42:00,50.0,31.0,-100.00,ESE,120,7.0,14.0,48,0.00,,,-99.99,,2013-03-09 18:42:00,
2013-03-09 13:52:00,51.0,31.0,-100.00,SE,130,4.0,11.0,46,0.00,,,-99.99,,2013-03-09 18:52:00,
2013-03-09 14:01:00,51.0,31.0,-100.00,SE,125,6.0,11.0,47,0.00,,,-99.99,,2013-03-09 19:01:00,
2013-03-09 14:11:00,52.0,32.0,-100.00,ESE,105,6.0,9.0,46,0.00,,,-99.99,,2013-03-09 19:11:00,
2013-03-09 14:22:00,52.0,32.0,-100.00,South,170,4.0,9.0,44,0.00,,,-99.99,,2013-03-09 19:22:00,
2013-03-09 14:32:00,53.0,30.0,-100.00,SE,130,7.0,12.0,41,0.00,,,-99.99,,2013-03-09 19:32:00,
2013-03-09 14:42:00,54.0,31.0,-100.00,SE,135,5.0,10.0,40,0.00,,,-99.99,,2013-03-09 19:42:00,
2013-03-09 14:52:00,54.0,32.0,-100.00,ESE,110,4.0,9.0,42,0.00,,,-99.99,,2013-03-09 19:52:00,
2013-03-09 15:01:00,54.0,32.0,-100.00,ESE,110,4.0,9.0,42,0.00,,,-99.99,,2013-03-09 20:01:00,
2013-03-09 15:11:00,55.0,32.0,-100.00,ESE,115,2.0,7.0,41,0.00,,,-99.99,,2013-03-09 20:11:00,
2013-03-09 15:22:00,56.0,32.0,-100.00,East,80,4.0,8.0,40,0.00,,,-99.99,,2013-03-09 20:22:00,
2013-03-09 15:32:00,55.0,31.0,-100.00,East,100,4.0,9.0,40,0.00,,,-99.99,,2013-03-09 20:32:00,
2013-03-09 15:42:00,55.0,33.0,-100.00,East,100,8.0,12.0,41,0.00,,,-99.99,,2013-03-09 20:42:00,
2013-03-09 15:52:00,55.0,32.0,-100.00,ESE,110,4.0,10.0,40,0.00,,,-99.99,,2013-03-09 20:52:00,
2013-03-09 16:02:00,56.0,31.0,-100.00,ESE,120,3.0,11.0,39,0.00,,,-99.99,,2013-03-09 21:02:00,
2013-03-09 16:12:00,56.0,32.0,-100.00,ESE,110,6.0,13.0,39,0.00,,,-99.99,,2013-03-09 21:12:00,
2013-03-09 16:22:00,56.0,30.0,-100.00,ESE,105,7.0,11.0,37,0.00,,,-99.99,,2013-03-09 21:22:00,
2013-03-09 16:32:00,57.0,30.0,-100.00,SE,135,5.0,10.0,36,0.00,,,-99.99,,2013-03-09 21:32:00,
2013-03-09 16:42:00,57.0,30.0,-100.00,ESE,120,7.0,12.0,36,0.00,,,-99.99,,2013-03-09 21:42:00,
2013-03-09 16:52:00,57.0,31.0,-100.00,SE,135,4.0,9.0,36,0.00,,,-99.99,,2013-03-09 21:52:00,
2013-03-09 17:01:00,56.0,30.0,-100.00,ESE,120,9.0,12.0,35,0.00,,,-99.99,,2013-03-09 22:01:00,
2013-03-09 17:11:00,56.0,30.0,-100.00,ESE,105,7.0,11.0,37,0.00,,,-99.99,,2013-03-09 22:11:00,
2013-03-09 17:21:00,56.0,31.0,-100.00,ESE,110,6.0,9.0,37,0.00,,,-99.99,,2013-03-09 22:21:00,
2013-03-09 17:32:00,56.0,31.0,-100.00,ESE,115,4.0,9.0,38,0.00,,,-99.99,,2013-03-09 22:32:00,
2013-03-09 17:42:00,56.0,31.0,-100.00,ESE,115,4.0,7.0,38,0.00,,,-99.99,,2013-03-09 22:42:00,
2013-03-09 17:51:00,56.0,31.0,-100.00,ESE,115,6.0,9.0,38,0.00,,,-99.99,,2013-03-09 22:51:00,
2013-03-09 18:01:00,56.0,30.0,-100.00,ESE,115,4.0,9.0,38,0.00,,,-99.99,,2013-03-09 23:01:00,
2013-03-09 18:11:00,55.0,30.0,-100.00,SE,130,2.0,7.0,37,0.00,,,-99.99,,2013-03-09 23:11:00,
2013-03-09 18:21:00,55.0,30.0,-100.00,ESE,105,1.0,3.0,38,0.00,,,-99.99,,2013-03-09 23:21:00,
2013-03-09 18:32:00,55.0,31.0,-100.00,ESE,115,2.0,4.0,39,0.00,,,-99.99,,2013-03-09 23:32:00,
2013-03-09 18:42:00,53.0,32.0,-100.00,East,100,2.0,4.0,43,0.00,,,-99.99,,2013-03-09 23:42:00,
2013-03-09 18:52:00,53.0,32.0,-100.00,ESE,105,1.0,3.0,44,0.00,,,-99.99,,2013-03-09 23:52:00,
2013-03-09 19:02:00,53.0,31.0,-100.00,ESE,110,1.0,2.0,43,0.00,,,-99.99,,2013-03-10 00:02:00,
2013-03-09 19:11:00,52.0,31.0,-100.00,East,90,1.0,2.0,44,0.00,,,-99.99,,2013-03-10 00:11:00,
2013-03-09 19:22:00,52.0,31.0,-100.00,East,100,1.0,2.0,44,0.00,,,-99.99,,2013-03-10 00:22:00,
2013-03-09 19:32:00,51.0,32.0,-100.00,East,85,1.0,2.0,48,0.00,,,-99.99,,2013-03-10 00:32:00,
2013-03-09 19:42:00,50.0,32.0,-100.00,East,85,2.0,2.0,49,0.00,,,-99.99,,2013-03-10 00:42:00,
2013-03-09 19:52:00,49.0,33.0,-100.00,East,90,2.0,3.0,53,0.00,,,-99.99,,2013-03-10 00:52:00,
2013-03-09 20:01:00,49.0,32.0,-100.00,ESE,115,2.0,3.0,50,0.00,,,-99.99,,2013-03-10 01:01:00,
2013-03-09 20:11:00,51.0,31.0,-100.00,East,100,2.0,5.0,47,0.00,,,-99.99,,2013-03-10 01:11:00,
2013-03-09 20:21:00,50.0,31.0,-100.00,ESE,110,4.0,4.0,49,0.00,,,-99.99,,2013-03-10 01:21:00,
2013-03-09 20:32:00,50.0,32.0,-100.00,East,100,4.0,5.0,50,0.00,,,-99.99,,2013-03-10 01:32:00,
2013-03-09 20:42:00,50.0,31.0,-100.00,ESE,110,2.0,4.0,47,0.00,,,-99.99,,2013-03-10 01:42:00,
2013-03-09 20:52:00,50.0,31.0,-100.00,East,100,2.0,3.0,48,0.00,,,-99.99,,2013-03-10 01:52:00,
2013-03-09 21:01:00,49.0,31.0,-100.00,East,95,2.0,4.0,50,0.00,,,-99.99,,2013-03-10 02:01:00,
2013-03-09 21:11:00,49.0,31.0,-100.00,East,95,3.0,4.0,50,0.00,,,-99.99,,2013-03-10 02:11:00,
2013-03-09 21:22:00,49.0,31.0,-100.00,ESE,110,2.0,4.0,50,0.00,,,-99.99,,2013-03-10 02:22:00,
2013-03-09 21:32:00,49.0,30.0,-100.00,ESE,120,1.0,3.0,47,0.00,,,-99.99,,2013-03-10 02:32:00,
2013-03-09 21:42:00,49.0,30.0,-100.00,ESE,120,0.0,3.0,48,0.00,,,-99.99,,2013-03-10 02:42:00,
2013-03-09 21:52:00,48.0,30.0,-100.00,ESE,110,1.0,2.0,49,0.00,,,-99.99,,2013-03-10 02:52:00,
2013-03-09 22:02:00,49.0,30.0,-100.00,ESE,120,0.0,2.0,48,0.00,,,-99.99,,2013-03-10 03:02:00,
2013-03-09 22:11:00,48.0,31.0,-100.00,East,95,1.0,2.0,51,0.00,,,-99.99,,2013-03-10 03:11:00,
2013-03-09 22:22:00,48.0,31.0,-100.00,East,95,1.0,2.0,51,0.00,,,-99.99,,2013-03-10 03:22:00,
2013-03-09 22:32:00,48.0,31.0,-100.00,East,95,1.0,2.0,51,0.00,,,-99.99,,2013-03-10 03:32:00,
2013-03-09 22:42:00,48.0,31.0,-100.00,East,95,1.0,2.0,51,0.00,,,-99.99,,2013-03-10 03:42:00,